Simultaneous Nadir Overpasses (SNOs) Predictions

Prediction of SNOs between GOES-16 and LANDSAT-8 Satellite Orbit:

Table of predicted SNOs for the next 14.0 days since TLE Epoch: 9/28/2019
Index Date Time (GOES-16) GOES-16 Lat,Lon LANDSAT-8 Lat,Lon Distance(km) Time Diff (sec)
1 09/28/2019 15:12:56 0.00, -75.20 0.05, -75.39 22.32 80
2 09/30/2019 15:03:25 0.00, -75.20 -0.56, -72.43 313.83 80
3 10/01/2019 03:24:50 -0.00, -75.19 -0.49, -77.63 277.41 80
4 10/03/2019 03:09:59 0.00, -75.19 0.12, -74.68 59.30 80
5 10/05/2019 02:57:48 0.00, -75.20 0.74, -71.72 396.43 80
6 10/05/2019 15:21:44 -0.00, -75.22 0.34, -76.88 188.63 80
7 10/07/2019 15:06:53 -0.00, -75.23 -0.27, -73.92 149.35 80
8 10/08/2019 03:30:57 0.00, -75.23 -0.84, -79.11 441.27 80
9 10/09/2019 14:54:42 0.00, -75.26 -0.90, -70.96 488.06 80
10 10/10/2019 03:18:46 -0.00, -75.26 -0.22, -76.15 102.38 80




NCC Satellite Simultaneous Nadir Overpasses (SNOs) Prediction Service
